Regional Weather Roundup
Issued by NWS Portland, ME

Home | Current Version | Previous Version | Text Only | Print | Product List | Glossary On
Versions: 1 2 3 4 5 6 7 8 9 10 11 12 13 14 15 16 17 18 19 20 21 22 23 24 25 26 27 28 29 30 31 32 33 34 35 36 37 38 39 40 41 42 43 44 45 46 47 48 49 50
000
ASUS41 KGYX 221010
RWRGYX
WEATHER ROUNDUP FOR MAINE AND NEW HAMPSHIRE
NATIONAL WEATHER SERVICE GRAY ME
600 AM EDT MON SEP 22 2014

MEZ002-005-006-010-012-015-018-020-021-024-026-027-029-221100-
MAINE

CITY           SKY/WX    TMP DP  RH WIND       PRES   REMARKS
PORTLAND       LGT RAIN  64  63  96 SW6       29.51R
SANFORD        CLOUDY    63  55  77 W8        29.54R
BAR HARBOR     CLOUDY    63  63 100 S5        29.48S VSB 1/2
WISCASSET      FOG       63  62  97 SW3       29.51R VSB 1/2
ROCKLAND       CLOUDY    61  61 100 S5        29.48R VSB 1/4
FRYEBURG       CLOUDY    61  58  90 VRB3      29.53R
LEWISTONAUBURN CLOUDY    63  61  94 E3        29.49S
AUGUSTA        CLOUDY    63  62  97 S3        29.49S
WATERVILLE     CLOUDY    63  61  94 CALM      29.43F
BANGOR         FOG       63  62  97 S5        29.47S VSB 1/2
GREENVILLE       N/A     57  56  96 VRB7      29.47R
MILLINOCKET    CLOUDY    64  63  96 CALM      29.45S
HOULTON        FOG       63  62  97 CALM      29.42R VSB 3/4
PRESQUE ISLE   CLOUDY    63  61  94 CALM      29.40S
FRENCHVILLE    CLOUDY    61  60  97 S7        29.40F
CARIBOU        FOG       63  62  97 S3        29.40F VSB 1/4
$$

NHZ002-005-008-009-011-012-014-221100-
NEW HAMPSHIRE

CITY           SKY/WX    TMP DP  RH WIND       PRES   REMARKS
PORTSMOUTH     PTCLDY    62  62  97 W8        29.55R
ROCHESTER      MOCLDY    62  58  86 NW5       29.54R
NASHUA         CLEAR     63  56  78 VRB7      29.60R
MANCHESTER     PTCLDY    63  54  72 CALM      29.58R
CONCORD        CLEAR     61  54  77 W7        29.58R
LACONIA        PTCLDY    61  54  77 SW15      29.55R
PLYMOUTH       FAIR      61  58  90 W7        29.56R
BERLIN         MOCLDY    57  56  96 E3        29.54R FOG
WHITEFIELD     CLOUDY    58  56  93 SW3       29.56R
JAFFREY        CLEAR     59  53  80 VRB6      29.64R
LEBANON        CLEAR     61  53  75 SW9       29.58R
MT WASHINGTON  FOG       41  41 100 W47G53      N/A  VSB 0
$$

VTZ005-007-008-221100-
VERMONT

CITY           SKY/WX    TMP DP  RH WIND       PRES   REMARKS
ST JOHNSBURY     N/A     58  57  97 MISG      29.53R
MONTPELIER     PTCLDY    60  52  74 SW8G25    29.60R
BURLINGTON     MOCLDY    58  51  78 NW15G22   29.60R
$$

MAZ007-012-024-CTZ003-RIZ002-NYZ038-NYZ072-221100-
SOUTHERN NEW ENGLAND AND NY

CITY           SKY/WX    TMP DP  RH WIND       PRES   REMARKS
BOSTON         PTCLDY    67  56  67 W15G24    29.60R
WORCESTER      CLEAR     58  54  86 W14       29.65R
NANTUCKET      CLOUDY    67  66  97 SW14      29.65R FOG
PROVIDENCE     PTCLDY    64  59  83 W6        29.65R
HARTFORD       PTCLDY    60  55  83 SW5       29.65R
ALBANY         PTCLDY    60  51  72 W12       29.68R
NEW YORK CITY  PTCLDY    66  53  63 W12G18    29.73R
$$

ANZ081-ANZ082-ANZ150-NHZ014-MEZ023>029-221100-
COASTAL MARINE OBSERVATIONS

STATION/POSITION TIME  TEMP    WIND        PRES    WAVE
                       AIR SEA DIR/SP/G            HT/PER
                 (UTC) (F)     (DEG/KT/KT) (MB)    (FT/S)
MOUNT DESERT ROC 1000   58                  998.7R
MATINICUS ROCK   1000          230/ 13/ 14  998.7R
PORTLAND WX BUOY 0950   61 59  210/ 10/ 12  998.8R   2/ 6
WELLS            0900   66 58  270/  5/ 10  998.3R
ISLE OF SHOALS   1000   66     250/ 16/ 17 1000.4R
JEFFREYS LEDGE   0921      60                N/A     2/ 7
CASHES LEDGE BUO 0950   63 60               999.2R   3/ 7
$$

.............KEY..............
   WCI - WIND CHILL
   TC  - TEMPERATURE IN CELSIUS
   VSB - VISIBILITY IN MILES
   HX  - HEAT INDEX
   FAIR- INDICATES FEW OR NO CLOUDS BELOW 12,000 FT, WITH NO
         SIGNIFICANT WEATHER AND/OR OBSTRUCTIONS TO VISIBILITY.




USA.gov is the U.S. government's official web portal to all federal, state and local government web resources and services.